SCP
0 0 0 0 0 0 0 0 0 0 0 0 0 0 0 0 0 0 0 0 0 0 0 0 0 0 0 0 0 0 0 0 0 0 0 0 0 0 0 0 0 0 0 0
0 0 0 0 0 0 0 0 0 0 0 0 0 0 0 0 0 0 0 0 0 0 0 0 0 0 0 0 0 0 0 0 0 0 0 0 0 0 0 0 0 0 0 0
0 0 0 0 0 0 0 0 0 0 0 0 0 0 0 0 0 0 0 0 0 0 0 0 0 0 0 0 0 0 0 0 0 0 0 0 0 0 0 0 0 0 0 0
0 0 0 0 0 0 0 0 0 0 0 0 0 0 0 0 0 0 0 0 0 0 0 0 0 0 0 0 0 0 0 0 0 0 0 0 0 0 0 0 0 0 0 0
0 0 0 0 0 0 0 0 0 0 0 0 0 0 0 0 0 0 0 0 0 0 0 0 0 0 0 0 0 0 0 0 0 0 0 0 0 0 0 0 0 0 0 0
0 0 0 0 0 0 0 0 0 0 0 0 0 0 0 0 0 0 0 0 0 0 0 0 0 0 0 0 0 0 0 0 0 0 0 0 0 0 0 0 0 0 0 0
0 0 0 0 0 0 0 0 0 0 0 0 0 0 0 0 0 0 0 0 0 0 0 0 0 0 0 0 0 0 0 0 0 0 0 0 0 0 0 0 0 0 0 0
0 0 0 0 0 0 0 0 0 0 0 0 0 0 0 0 0 0 0 0 0 0 0 0 0 0 0 0 0 0 0 0 0 0 0 0 0 0 0 0 0 0 0 0
0 0 0 0 0 0 0 0 0 0 0 0 0 0 0 0 0 0 0 0 0 0 0 0 0 0 0 0 0 0 0 0 0 0 0 0 0 0 0 0 0 0 0 0
0 0 0 0 0 0 0 0 0 0 0 0 0 0 0 0 0 0 0 0 0 0 0 0 0 0 0 0 0 0 0 0 0 0 0 0 0 0 0 0 0 0 0 0
0 0 0 0 0 0 0 0 0 0 0 0 0 0 0 0 0 0 0 0 0 0 0 0 0 0 0 0 0 0 0 0 0 0 0 0 0 0 0 0 0 0 0 0
0 0 0 0 0 0 0 0 0 0 0 0 0 0 0 0 0 0 0 0 0 0 0 0 0 0 0 0 0 0 0 0 0 0 0 0 0 0 0 0 0 0 0 0
0 0 0 0 0 0 0 0 0 0 0 0 0 0 0 0 0 0 0 0 0 0 0 0 0 0 0 0 0 0 0 0 0 0 0 0 0 0 0 0 -0 0 0 0
0 0 0 0 0 0 0 0 0 0 0 0 0 0 0 0 0 0 0 0 0 0 0 0 0 0 0 0 -0 0 0 0 0 0 0 0 0 0 0 0 0 0 0 0
0 0 0 0 0 0 0 0 0 0 0 0 0 0 0 0 0 0 0 0 0 0 0 -0 -0 -0 0 0 0 0 0 0 0 0 0 0 0 0 0 0 0 0 0 0
0 0 0 0 0 0 0 0 0 0 0 0 0 0 0 0 0 0 0 0 0 0 0 -0 -0 0 0 0 0 0 0 0 0 0 0 0 0 0 0 0 0 0 0 0
0 0 0 0 0 0 0 0 0 0 0 0 0 0 0 0 0 0 0 0 0 -0 -0 -0 0 0 0 0 0 0 0 0 0 0 0 0 0 0 0 0 0 0 -0 -0
0 0 0 0 0 -0 -0 0 0 0 0 0 0 0 0 0 0 0 0 0 0 -0 -0 0 0 0 0 0 0 0 0 0 0 0 0 0 0 0 0 0 0 -0 -0 -0
0 0 0 0 -0 -0 -0 0 0 0 0 0 0 0 0 0 0 0 0 0 0 0 0 0 0 0 0 0 0 0 0 0 0 0 0 0 0 0 0 0 0 0 -0 -0
0 0 0 0 0 0 0 0 0 0 0 0 0 0 0 0 0 0 0 0 0 0 0 0 0 0 0 0 0 0 0 0 0 0 0 0 0 0 0 0 0 0 0 0
0 0 0 0 0 0 0 0 0 0 0 0 0 0 0 0 0 0 0 0 0 0 0 0 0 0 0 0 0 0 0 0 0 0 0 0 0 0 0 0 0 0 0 0
0 0 0 0 0 0 0 0 0 0 0 0 0 0 0 0 0 0 0 0 0 0 0 0 0 0 0 0 0 0 0 0 0 0 0 0 0 0 0 0 0 0 0 0
0 0 0 0 0 0 0 0 0 0 0 0 0 0 0 0 0 0 0 0 0 0 0 0 0 0 0 0 0 0 0 0 0 0 0 0 0 0 0 0 0 0 0 0
0 0 0 0 0 0 0 0 0 0 0 0 0 0 0 0 0 0 0 0 0 0 0 0 0 0 0 0 0 0 0 0 0 0 0 0 0 0 0 0 0 0 0 0
0 0 0 0 0 0 0 0 0 0 0 0 0 0 0 0 0 0 0 0 0 0 0 0 -0 0 0 0 0 0 0 0 0 0 0 0 0 0 0 0 0 0 0 0
0 0 0 0 0 0 0 0 0 0 0 0 0 0 0 0 0 0 0 0 0 0 0 0 0 0 0 0 0 0 0 0 0 0 0 0 0 0 0 0 0 0 0 0
0 0 0 0 0 0 0 0 0 0 0 0 0 0 0 0 0 0 0 0 0 0 0 0 0 0 0 0 0 0 0 0 0 0 0 0 0 0 0 0 0 0 0 0
Wind_Speed
1 1 1 1 2 1 2 3 4 4 3 3 4 5 6 7 8 9 8 8 7 6 5 4 3 3 3 3 3 3 4 3 3 3 3 4 4 5 5 5 5 5 5 6
2 2 2 3 4 3 1 1 1 1 0 1 5 5 6 7 8 8 8 8 7 6 6 5 4 3 3 3 3 3 3 3 3 3 4 4 4 4 5 5 5 6 6 6
1 3 2 3 3 2 1 1 2 2 2 4 5 6 6 7 7 7 7 7 7 6 6 5 4 4 3 2 2 3 3 2 3 3 4 4 4 5 5 5 5 6 6 6
1 3 0 3 1 1 1 1 1 1 3 5 5 4 3 4 6 7 6 7 6 6 5 4 4 4 3 3 3 3 2 2 2 3 3 3 4 4 4 3 4 4 5 5
3 1 2 3 1 0 0 1 1 3 5 4 6 5 2 2 5 6 6 6 6 6 6 5 5 4 4 4 3 3 2 2 2 2 3 3 3 3 3 3 4 4 4 5
3 2 2 3 3 1 2 2 1 4 6 6 5 3 3 4 6 6 6 6 6 6 6 5 4 5 5 4 3 2 1 1 2 2 2 3 2 2 2 3 3 4 5 5
2 1 4 4 3 1 1 5 2 5 7 7 4 3 4 7 6 6 6 7 7 7 6 5 5 5 5 3 2 1 1 2 2 2 2 2 2 2 2 3 4 4 5 5
3 1 4 3 1 2 4 1 3 5 5 5 5 6 7 8 8 8 7 7 7 6 5 4 5 6 5 3 1 2 3 3 3 3 2 2 3 3 3 3 4 4 4 4
5 4 4 2 1 1 2 3 3 5 5 7 7 7 7 7 8 7 7 7 6 6 6 4 4 5 5 2 2 3 4 3 3 3 3 3 3 2 2 2 2 2 3 3
1 2 2 2 1 1 1 2 3 5 7 7 7 8 7 7 7 7 6 6 6 6 6 4 3 3 3 3 3 4 4 3 2 3 3 3 2 2 2 1 1 2 2 2
0 1 1 2 1 1 3 4 6 6 5 7 9 8 7 7 7 6 5 5 5 6 6 5 4 3 2 3 4 4 3 2 2 2 2 2 2 1 0 1 1 1 1 1
4 5 4 3 1 3 4 4 6 6 6 5 7 8 7 7 6 6 6 5 5 5 5 5 4 3 2 3 4 4 3 2 1 1 1 1 1 2 2 1 1 2 3 3
4 3 3 2 2 3 4 4 5 6 7 6 5 7 8 6 6 6 6 6 6 6 5 5 4 3 2 3 4 4 3 2 1 1 0 0 0 1 2 4 4 2 2 2
3 4 3 2 3 3 4 5 5 6 5 6 6 6 7 6 6 7 7 6 6 6 5 5 4 3 3 3 4 4 3 2 2 1 1 1 1 1 1 1 3 3 3 3
2 3 4 3 4 4 5 6 7 6 5 5 5 6 7 8 7 7 6 6 6 6 5 5 4 3 3 4 4 3 3 2 1 1 1 1 1 1 1 2 2 3 3 3
3 3 5 5 5 6 6 6 6 6 6 5 6 6 7 7 6 6 6 7 7 6 6 5 5 4 4 4 4 3 2 3 2 1 1 1 1 2 2 2 2 2 3 3
5 4 4 5 5 6 7 7 8 8 7 7 7 7 7 6 6 5 5 6 6 6 6 6 6 4 4 5 4 3 2 2 2 1 2 2 2 2 2 2 3 3 4 4
6 7 7 8 8 7 7 6 7 7 7 7 7 7 7 8 7 7 6 5 4 4 4 5 5 4 4 5 4 3 3 2 2 2 3 3 3 3 3 3 4 4 4 3
4 5 5 6 7 7 7 6 7 7 7 8 8 8 8 7 7 6 6 6 6 6 6 6 7 5 5 5 5 3 3 3 3 3 3 3 3 3 3 3 4 4 4 4
3 4 4 5 6 6 6 5 6 6 7 8 8 7 6 7 7 7 6 6 7 6 6 6 6 5 5 5 6 4 4 4 4 4 3 3 4 4 4 4 4 5 4 4
4 4 5 6 6 5 6 7 7 7 7 9 9 9 8 7 7 7 6 6 6 6 6 8 6 5 5 5 6 4 5 5 4 4 4 4 4 4 4 4 5 5 4 5
4 4 4 5 5 4 4 5 6 7 7 7 8 8 7 6 7 7 7 7 6 8 7 6 6 7 8 7 5 5 5 5 5 4 5 5 5 5 5 5 5 5 5 5
3 4 4 4 4 4 3 4 5 6 7 8 8 9 8 8 7 7 7 7 5 8 7 6 8 11 11 7 5 6 6 6 6 5 5 6 6 6 6 6 6 6 6 6
3 3 3 3 4 4 3 3 4 4 6 6 7 8 7 6 5 7 6 6 9 10 8 8 12 13 11 6 6 6 6 6 6 6 6 6 6 6 6 7 7 6 6 7
3 3 3 4 4 3 3 3 2 3 3 3 4 6 6 6 7 6 6 7 9 10 7 9 13 13 9 6 7 7 7 7 7 6 6 7 7 7 7 7 7 7 7 7
2 2 3 3 3 3 3 3 3 3 3 3 3 4 4 4 5 5 5 7 9 10 8 7 7 9 8 8 8 8 8 8 8 8 8 8 8 8 7 8 10 8 8 8
2 2 1 1 1 2 3 3 3 4 4 4 4 4 4 4 5 5 6 6 6 7 7 7 7 7 8 8 8 8 8 8 8 8 8 8 8 8 8 10 8 8 8 8
Wind_Direction
181 242 119 60 17 86 156 179 190 227 198 216 174 161 151 142 139 142 144 145 146 143 136 127 115 98 89 81 71 74 72 60 45 40 40 39 36 30 27 29 27 18 19 17
45 56 82 53 15 17 40 125 151 103 278 104 127 123 132 141 145 149 150 150 149 148 144 140 134 121 100 87 75 78 77 61 46 44 44 42 37 32 31 27 20 24 24 21
323 311 40 14 334 345 6 22 165 211 216 136 133 143 155 156 153 152 153 151 151 153 151 146 142 133 123 109 89 84 78 65 54 52 47 38 39 38 32 24 23 27 23 22
72 40 71 260 308 56 77 15 19 110 127 149 140 128 128 148 154 151 149 149 149 146 143 137 128 122 115 104 95 93 85 70 64 64 57 45 47 40 30 26 25 24 23 20
98 91 297 301 302 216 151 325 66 130 127 116 110 85 73 134 145 152 151 146 145 144 140 133 128 124 114 103 97 93 87 75 70 75 68 56 48 36 29 34 31 27 22 25
108 121 236 262 296 263 109 302 197 148 152 149 129 135 207 160 135 127 125 128 130 128 123 126 128 125 118 113 102 95 92 79 78 84 81 68 50 38 34 41 36 32 33 26
120 173 268 277 299 91 125 260 188 160 162 161 166 176 151 132 123 122 120 122 125 126 127 133 133 125 121 116 116 116 92 82 76 74 81 81 59 47 50 50 44 36 32 24
130 143 267 314 59 150 223 223 144 153 158 150 130 118 121 126 127 124 119 118 122 124 122 122 129 128 123 127 135 100 92 79 68 57 57 73 70 53 52 58 53 35 28 21
176 205 253 301 264 307 138 128 147 152 149 141 135 134 128 129 132 131 130 128 125 127 123 117 125 134 138 157 132 107 93 79 66 59 53 55 67 61 51 54 54 36 32 21
147 279 306 340 15 39 75 125 139 138 136 138 138 139 134 136 136 132 127 131 130 130 130 131 136 140 149 144 125 112 103 89 75 70 56 48 49 54 60 47 41 29 22 7
165 267 4 355 17 93 77 88 104 108 121 137 134 136 140 144 145 142 135 135 136 140 144 147 145 142 143 137 129 117 113 102 83 72 67 47 35 26 50 254 211 201 245 258
210 213 182 220 203 136 120 118 126 119 114 127 141 143 141 145 147 145 143 139 139 142 146 150 148 147 146 141 137 130 121 115 102 86 61 50 24 1 358 309 307 234 223 222
196 169 163 164 141 133 130 132 130 129 136 137 136 140 141 140 144 144 145 147 152 157 155 151 150 154 160 152 141 140 148 155 148 141 142 192 343 352 334 340 352 341 299 265
161 125 117 153 162 145 130 127 115 108 116 130 132 133 135 132 139 150 160 165 157 151 152 155 157 166 169 153 146 151 158 171 171 186 202 224 248 261 265 299 322 325 328 312
180 160 162 148 123 122 122 121 119 120 122 122 129 138 144 147 156 165 163 152 145 150 158 162 168 183 169 158 157 163 165 178 189 198 211 228 240 250 253 264 276 290 306 314
130 112 121 130 139 141 138 142 148 155 153 146 148 155 158 157 155 155 155 153 154 169 177 175 187 195 172 162 162 168 189 204 193 200 225 238 243 249 260 264 272 277 280 282
137 143 147 158 165 167 170 171 169 167 164 164 168 162 151 146 147 157 168 172 174 180 182 184 196 191 174 169 171 181 195 218 219 217 238 247 257 261 263 263 268 273 270 258
178 182 179 178 177 175 178 173 168 167 171 173 161 155 159 165 175 182 181 170 167 183 199 199 196 186 182 182 184 189 193 204 209 228 245 251 255 255 258 263 270 274 282 284
165 167 173 174 173 170 173 174 174 173 167 161 162 170 178 182 183 180 170 167 179 201 217 207 199 193 197 200 191 193 201 213 225 235 242 255 262 261 259 261 268 272 276 281
153 159 162 161 159 162 170 170 163 164 168 166 166 169 178 187 183 176 173 189 205 208 201 193 193 201 209 210 200 201 211 220 229 238 243 250 259 265 265 262 263 268 269 267
149 144 149 155 162 167 170 167 166 172 173 171 175 184 191 191 182 175 177 207 226 208 196 193 194 203 208 210 205 206 213 221 229 233 239 246 253 260 264 265 263 263 262 263
146 140 142 148 152 161 169 167 170 173 171 179 186 185 182 186 186 189 200 212 214 194 191 197 202 208 209 206 207 210 218 224 229 232 235 239 244 253 259 262 262 261 259 258
140 141 140 148 161 167 160 164 170 174 180 186 190 191 194 197 190 190 214 219 204 197 196 206 210 210 209 207 211 215 221 226 230 235 239 240 242 245 251 257 258 259 258 258
132 138 146 142 130 132 158 188 183 185 189 192 197 196 191 191 204 213 213 200 196 196 204 213 212 212 208 210 213 220 225 229 234 238 242 244 243 244 246 250 254 255 255 257
135 133 127 130 144 178 196 188 172 180 184 199 208 205 198 195 203 211 202 202 201 198 211 218 215 213 210 214 218 223 228 231 234 236 240 244 246 247 247 247 248 252 253 253
143 155 168 181 189 191 180 171 180 194 194 209 225 218 210 205 204 201 199 206 204 204 210 216 212 208 213 218 222 225 229 234 236 238 241 243 247 248 249 249 250 250 251 251
129 135 140 151 197 188 182 182 191 203 203 206 221 223 213 208 203 204 207 209 208 210 215 216 213 210 214 220 225 228 230 233 235 237 239 242 244 245 248 249 250 250 250 251